| time (UTC) | temp F | wind direction | speed knots | gust knots | rain 1hr in | rain 24hr in | rain mn in | humidity % | barometer mb |
| 20260906061528 | 73 | 128 | 1.7 | 3.5 | 0.00 | 0.00 | 0.00 | 82 | 1016.9 |
| 20260906060033 | 73 | 153 | 0.9 | 4.3 | 0.00 | 0.00 | 0.00 | 82 | 1017.1 |
| 20260906054526 | 74 | 84 | 0.9 | 3.5 | 0.00 | 0.00 | 0.00 | 81 | 1017.0 |
| 20260906053023 | 74 | 115 | 1.7 | 3.5 | 0.00 | 0.00 | 0.00 | 81 | 1016.9 |
| 20260906051520 | 74 | 120 | 0.0 | 2.6 | 0.00 | 0.00 | 0.00 | 81 | 1017.0 |
| 20260906050018 | 74 | 127 | 0.9 | 2.6 | 0.00 | 0.00 | 0.00 | 80 | 1017.1 |
| 20260906044518 | 74 | 107 | 0.0 | 2.6 | 0.00 | 0.00 | 0.00 | 79 | 1017.2 |
| 20260906043027 | 74 | 97 | 0.9 | 2.6 | 0.00 | 0.00 | 0.00 | 79 | 1017.2 |
| 20260906041518 | 75 | 56 | 0.0 | 4.3 | 0.00 | 0.00 | 0.00 | 79 | 1017.4 |
| 20260906040023 | 75 | 50 | 0.9 | 3.5 | 0.00 | 0.00 | 0.00 | 79 | 1017.3 |
| 20260906034529 | 75 | 78 | 0.9 | 2.6 | 0.00 | 0.00 | 0.00 | 79 | 1017.4 |
| 20260906033024 | 75 | 136 | 0.9 | 2.6 | 0.00 | 0.00 | 0.00 | 78 | 1017.4 |
| 20260906031518 | 75 | 141 | 0.0 | 1.7 | 0.00 | 0.00 | 0.00 | 78 | 1017.2 |
| 20260906030015 | 76 | 150 | 0.0 | 2.6 | 0.00 | 0.00 | 0.00 | 77 | 1017.3 |
| 20260906024514 | 76 | 150 | 0.0 | 2.6 | 0.00 | 0.00 | 0.00 | 77 | 1017.5 |
| 20260906023016 | 76 | 150 | 0.0 | 1.7 | 0.00 | 0.00 | 0.00 | 77 | 1017.4 |
| 20260906021514 | 76 | 150 | 0.9 | 2.6 | 0.00 | 0.00 | 0.00 | 77 | 1017.1 |
| 20260906020013 | 76 | 148 | 0.9 | 4.3 | 0.00 | 0.00 | 0.00 | 75 | 1016.6 |
| 20260906014525 | 77 | 145 | 2.6 | 7.0 | 0.00 | 0.00 | 0.00 | 74 | 1016.3 |
| 20260906013113 | 77 | 171 | 2.6 | 9.6 | 0.00 | 0.00 | 0.00 | 74 | 1015.7 |
| 20260906011521 | 78 | 205 | 4.3 | 8.7 | 0.00 | 0.00 | 0.00 | 73 | 1015.4 |
| 20260906010012 | 78 | 149 | 5.2 | 9.6 | 0.00 | 0.00 | 0.00 | 73 | 1015.3 |
| 20260906004517 | 79 | 167 | 4.3 | 8.7 | 0.00 | 0.00 | 0.00 | 71 | 1015.2 |
| 20260906003011 | 80 | 163 | 5.2 | 11.3 | 0.00 | 0.00 | 0.00 | 69 | 1015.0 |
| 20260906001510 | 81 | 165 | 4.3 | 7.0 | 0.00 | 0.00 | 0.00 | 68 | 1014.8 |
| 20260906000010 | 82 | 161 | 4.3 | 7.8 | 0.00 | 0.00 | 0.00 | 65 | 1014.7 |
| 20260905234508 | 84 | 182 | 1.7 | 7.0 | 0.00 | 0.00 | 0.00 | 63 | 1014.7 |
| 20260905233007 | 84 | 184 | 4.3 | 10.4 | 0.00 | 0.00 | 0.00 | 62 | 1014.6 |
| 20260905231508 | 85 | 174 | 3.5 | 9.6 | 0.00 | 0.00 | 0.00 | 60 | 1014.4 |
| 20260905230007 | 86 | 129 | 0.9 | 8.7 | 0.00 | 0.00 | 0.00 | 58 | 1014.3 |
| 20260905224513 | 87 | 57 | 1.7 | 10.4 | 0.00 | 0.00 | 0.00 | 57 | 1014.0 |
| 20260905223005 | 86 | 41 | 3.5 | 8.7 | 0.00 | 0.00 | 0.00 | 58 | 1013.8 |
| 20260905221505 | 86 | 173 | 3.5 | 11.3 | 0.00 | 0.00 | 0.00 | 59 | 1014.0 |
| 20260905220002 | 86 | 61 | 2.6 | 7.8 | 0.00 | 0.00 | 0.00 | 59 | 1014.3 |
| 20260905214501 | 86 | 57 | 1.7 | 10.4 | 0.00 | 0.00 | 0.00 | 60 | 1014.5 |
| 20260905213104 | 85 | 84 | 3.5 | 11.3 | 0.00 | 0.00 | 0.00 | 62 | 1014.6 |
| 20260905211605 | 85 | 67 | 4.3 | 9.6 | 0.00 | 0.00 | 0.00 | 61 | 1014.7 |
| 20260905210059 | 85 | 48 | 3.5 | 10.4 | 0.00 | 0.00 | 0.00 | 63 | 1014.4 |
| 20260905204602 | 84 | 61 | 2.6 | 11.3 | 0.00 | 0.00 | 0.00 | 62 | 1014.7 |
| 20260905203058 | 84 | 55 | 6.1 | 11.3 | 0.00 | 0.00 | 0.00 | 64 | 1014.8 |
| 20260905201552 | 83 | 80 | 2.6 | 7.8 | 0.00 | 0.00 | 0.00 | 66 | 1015.5 |
| 20260905200100 | 83 | 17 | 5.2 | 9.6 | 0.00 | 0.00 | 0.00 | 67 | 1015.8 |
| 20260905194549 | 82 | 57 | 2.6 | 8.7 | 0.00 | 0.00 | 0.00 | 69 | 1015.9 |
| 20260905193103 | 82 | 27 | 2.6 | 6.1 | 0.00 | 0.00 | 0.00 | 68 | 1016.2 |
| 20260905191553 | 81 | 360 | 1.7 | 4.3 | 0.00 | 0.00 | 0.00 | 69 | 1016.4 |
| 20260905190147 | 81 | 44 | 0.0 | 3.5 | 0.00 | 0.00 | 0.00 | 68 | 1016.4 |
| 20260905184546 | 81 | 350 | 0.9 | 4.3 | 0.00 | 0.00 | 0.00 | 69 | 1016.5 |
| 20260905183040 | 81 | 52 | 0.9 | 4.3 | 0.00 | 0.00 | 0.00 | 69 | 1016.5 |
| 20260905181541 | 80 | 74 | 1.7 | 3.5 | 0.00 | 0.00 | 0.00 | 71 | 1016.6 |
| 20260905180034 | 79 | 128 | 0.9 | 4.3 | 0.00 | 0.00 | 0.00 | 73 | 1016.8 |
| 20260905174534 | 78 | 162 | 1.7 | 7.0 | 0.00 | 0.00 | 0.00 | 73 | 1017.0 |
| 20260905173033 | 78 | 111 | 0.9 | 4.3 | 0.00 | 0.00 | 0.00 | 75 | 1017.3 |
| 20260905171528 | 76 | 172 | 1.7 | 6.1 | 0.00 | 0.00 | 0.00 | 79 | 1017.5 |
| 20260905170023 | 75 | 176 | 1.7 | 4.3 | 0.00 | 0.00 | 0.00 | 80 | 1017.4 |
| 20260905164520 | 74 | 133 | 1.7 | 5.2 | 0.00 | 0.00 | 0.00 | 80 | 1017.4 |
| 20260905163019 | 74 | 67 | 2.6 | 5.2 | 0.00 | 0.00 | 0.00 | 81 | 1017.5 |
| 20260905161517 | 74 | 13 | 1.7 | 5.2 | 0.00 | 0.00 | 0.00 | 82 | 1017.5 |
| 20260905160033 | 73 | 34 | 1.7 | 4.3 | 0.00 | 0.00 | 0.00 | 84 | 1017.4 |
| 20260905154509 | 72 | 72 | 0.9 | 5.2 | 0.00 | 0.00 | 0.00 | 85 | 1017.4 |
| 20260905153006 | 72 | 165 | 1.7 | 2.6 | 0.00 | 0.00 | 0.00 | 85 | 1017.4 |
| 20260905151502 | 72 | 12 | 0.0 | 3.5 | 0.00 | 0.00 | 0.00 | 87 | 1017.1 |
| 20260905144601 | 70 | 30 | 2.6 | 7.0 | 0.00 | 0.00 | 0.00 | 90 | 1016.6 |
| 20260905143058 | 70 | 9 | 2.6 | 5.2 | 0.00 | 0.00 | 0.00 | 90 | 1016.6 |
| 20260905141557 | 70 | 31 | 0.9 | 4.3 | 0.00 | 0.00 | 0.00 | 91 | 1016.6 |
| 20260905140053 | 69 | 50 | 1.7 | 5.2 | 0.00 | 0.00 | 0.00 | 91 | 1016.7 |
| 20260905134556 | 69 | 46 | 0.9 | 3.5 | 0.00 | 0.00 | 0.00 | 91 | 1016.9 |
| 20260905133049 | 69 | 28 | 1.7 | 2.6 | 0.00 | 0.00 | 0.00 | 91 | 1016.8 |
| 20260905131551 | 69 | 38 | 1.7 | 2.6 | 0.00 | 0.00 | 0.00 | 91 | 1016.6 |
| 20260905130044 | 68 | 51 | 0.0 | 3.5 | 0.00 | 0.00 | 0.00 | 91 | 1016.1 |
| 20260905124543 | 68 | 19 | 1.7 | 4.3 | 0.00 | 0.00 | 0.00 | 91 | 1015.4 |
| 20260905123040 | 68 | 52 | 2.6 | 7.0 | 0.00 | 0.00 | 0.00 | 91 | 1015.0 |
| 20260905121538 | 68 | 40 | 0.0 | 2.6 | 0.00 | 0.00 | 0.00 | 91 | 1015.3 |
| 20260905120037 | 68 | 46 | 0.9 | 3.5 | 0.00 | 0.00 | 0.00 | 91 | 1015.4 |
| 20260905114541 | 68 | 49 | 0.9 | 2.6 | 0.00 | 0.00 | 0.00 | 90 | 1015.4 |
| 20260905113037 | 67 | 34 | 1.7 | 4.3 | 0.00 | 0.00 | 0.00 | 90 | 1015.1 |
| 20260905111533 | 67 | 69 | 1.7 | 5.2 | 0.00 | 0.00 | 0.00 | 90 | 1015.1 |
| 20260905110034 | 67 | 46 | 1.7 | 5.2 | 0.00 | 0.00 | 0.00 | 90 | 1015.1 |
| 20260905104529 | 68 | 80 | 2.6 | 5.2 | 0.00 | 0.00 | 0.00 | 89 | 1014.9 |
| 20260905103029 | 68 | 31 | 1.7 | 4.3 | 0.00 | 0.00 | 0.00 | 89 | 1014.8 |
| 20260905101539 | 68 | 49 | 1.7 | 7.0 | 0.00 | 0.00 | 0.00 | 89 | 1014.7 |
| 20260905100028 | 68 | 40 | 0.0 | 7.0 | 0.00 | 0.00 | 0.00 | 89 | 1014.9 |
| 20260905094527 | 68 | 42 | 1.7 | 8.7 | 0.00 | 0.00 | 0.00 | 89 | 1014.1 |
| 20260905093025 | 68 | 69 | 3.5 | 9.6 | 0.00 | 0.00 | 0.00 | 88 | 1014.0 |
| 20260905091524 | 68 | 42 | 2.6 | 7.8 | 0.00 | 0.00 | 0.00 | 88 | 1014.2 |
| 20260905090023 | 68 | 42 | 3.5 | 8.7 | 0.00 | 0.00 | 0.00 | 88 | 1014.4 |
| 20260905084522 | 68 | 67 | 1.7 | 8.7 | 0.00 | 0.00 | 0.00 | 88 | 1014.5 |
| 20260905083031 | 68 | 11 | 3.5 | 7.8 | 0.00 | 0.00 | 0.00 | 88 | 1014.5 |
| 20260905081520 | 68 | 45 | 2.6 | 9.6 | 0.00 | 0.00 | 0.00 | 88 | 1014.5 |
| 20260905080020 | 68 | 28 | 2.6 | 7.0 | 0.00 | 0.00 | 0.00 | 88 | 1014.6 |
| 20260905074519 | 67 | 23 | 1.7 | 7.8 | 0.00 | 0.00 | 0.00 | 87 | 1014.7 |
| 20260905073023 | 67 | 22 | 1.7 | 7.8 | 0.00 | 0.00 | 0.00 | 87 | 1014.8 |
| 20260905071517 | 68 | 23 | 1.7 | 7.0 | 0.00 | 0.00 | 0.00 | 86 | 1014.7 |
| 20260905070016 | 68 | 20 | 0.9 | 2.6 | 0.00 | 0.00 | 0.00 | 85 | 1014.8 |
| 20260905064523 | 68 | 13 | 2.6 | 5.2 | 0.00 | 0.00 | 0.00 | 85 | 1014.6 |
| 20260905063013 | 69 | 5 | 2.6 | 7.0 | 0.00 | 0.00 | 0.00 | 84 | 1014.7 |